Regional Weather Roundup
Issued by NWS Midland/Odessa, TX

Skip options and go directly to product.
Home | Oldest Version | Previous Version | Current Version | All | Text Only | Save Text | Print | Product List | Glossary On

Skip product version selection by date and time.   
029
ASUS44 KMAF 040801
RWRMAF
MIDLAND AREA WEATHER ROUNDUP
NATIONAL WEATHER SERVICE MIDLAND TX
300 AM CDT WED MAY 04 2016

...IN SOUTHWEST TEXAS AND SOUTHEAST NEW MEXICO...

CITY           SKY/WX    TMP DP  RH WIND       PRES   REMARKS
ALPINE         CLEAR     52  39  59 CALM      30.25S
ANDREWS        FAIR      48  44  85 NW3       30.20R
ARTESIA        CLEAR     52  32  46 SW5       30.23R
BIG SPRING     CLEAR     50  44  80 NW6       30.19R
CARLSBAD       CLEAR     48  32  53 SW6       30.20S
DRYDEN           N/A     63  50  62 N8        30.12R
FORT STOCKTON  CLEAR     56  46  69 E7        30.17S
GUAD PASS      NOT AVBL
HOBBS            N/A     45  45 100 NW7       30.23S
MARFA          CLEAR     53  38  56 N9        30.23S
MIDLAND AIRPK  CLEAR     59  48  68 CALM      30.19R
MIDLAND INTL   CLEAR     54  46  74 CALM      30.17S
ODESSA         CLEAR     57  46  66 CALM      30.18S
PECOS          CLEAR     60  46  59 E6        30.17S
PRESIDIO       FAIR      69  46  42 NE8G17    30.10S
SEMINOLE       CLEAR     48  45  89 CALM      30.21F
SNYDER           N/A     51  49  91 W6        30.15F
WINK           CLEAR     57  46  66 E6        30.16S
$$
...OTHER STATIONS IN TEXAS...

CITY           SKY/WX    TMP DP  RH WIND       PRES   REMARKS
ABILENE        CLEAR     53  51  93 CALM      30.12S
AMARILLO       CLEAR     46  37  71 W6        30.19S
AUSTIN         CLEAR     52  51  97 CALM      30.07F
BROWNSVILLE    CLOUDY    69  62  78 NW3       30.03F
CORPUS CHRISTI PTCLDY    66  53  63 NE7       30.05F
DALLAS FTW     CLEAR     61  55  81 CALM      30.05F
DEL RIO        CLEAR     61  54  77 CALM      30.10R
EL PASO        CLEAR     66  33  29 VRB6      30.17R
HOUSTON INT    PTCLDY    58  54  86 CALM      30.03F
LUBBOCK        CLEAR     44  41  89 NW6       30.17F
SAN ANGELO     CLEAR     54  51  90 W6        30.13F
SAN ANTONIO    PTCLDY    57  50  77 NW5       30.09F
WACO           CLEAR     54  52  93 N3        30.07S
WICHITA FALLS  NOT AVBL
$$
...OTHER LOCATIONS IN NEW MEXICO...

CITY           SKY/WX    TMP DP  RH WIND       PRES   REMARKS
ALAMAGORDO     CLEAR     57  28  33 NE5       30.20S
ALBUQUERQUE    CLEAR     59  28  30 E7        30.28R
CANNON AFB     CLEAR     46  33  59 W1        30.23S
CLOVIS         CLEAR     43  34  70 NW3       30.24S
HOLLOMAN AFB   CLEAR     53  30  41 W5        30.18S
ROSWELL        CLEAR     48  30  49 CALM      30.23R
RUIDOSO          N/A     46  28  49 SW5       30.37S
SANTA FE       CLEAR     43  31  62 S6        30.32S WCI  39
TRUTH OR CONSE CLEAR     58  27  30 N3        30.22S
TUCUMCARI      CLEAR     44  33  65 SW5       30.22S
$$

USA.gov is the U.S. government's official web portal to all federal, state and local government web resources and services.